DELTA 1 DEB, 7043

Orbit data source: Space-Track

DELTA 1 DEB, 7043 is space debris in SSO originally from a launch on Tue, 06 Nov 1973 UTC launched from the Air Force Western Test Range (AFWTR). Debris objects in space refer to the collection of defunct objects orbiting the Earth. Examples of debris include non-operational satellites, rocket bodies, and fragments generated from explosions, collisions, or faulty payload assembly.

Loading next visibility...
Identifier
7043, 1973-086AK
Orbit
SSO
Last TLE update
13 hours ago
Origin
Manufacturer
Unknown
Mission
Spacecraft
Bus & Motor
Unknown
Mass
Unknown
Launch date (UTC)
1973-11-06 (52 years ago)
Launch vehicle
Unknown
Launch site
Air Force Western Test Range (AFWTR)
Object type
Payload
Rocket body
Debris
Shape & HBR
Unknown
Radar Cross Section
Small (<0.1 m²)

Expand to show TLE details & history

TLE from 13 hours ago
0 DELTA 1 DEB
1 07043U 73086AK  25181.87865399  .00000080  00000-0  48826-3 0  9999
2 07043 102.1668 211.0305 0216554 224.6469 313.3222 12.85327042419440
Epoch: 2025-06-30T21:05Z
TLE epoch observation values (Epoch: 2025-06-30T21:05:15.704Z)
Latitude
3.69711°
Longitude
156.32712°
Altitude
1,209.886 km
Speed
7.302 km/s
True Right ascension
02h 07m 17s
True Declination
3° 40' 35"
Sunlit
Object was in daylight at epoch
Visualization orbit readout
Latitude
-24.19185°
Longitude
150.60166°
Altitude
1,170.838 km
Speed
7.341 km/s
Apparent Right ascension
04h 41m 21s
Apparent Declination
-50° 32' 59"
Sunlit
Object is in daylight
Visualization observer readout
Local Sidereal Time
21:56:47
Azimuth
129.475° SE
Elevation
-36.132°
Doppler factor
1
Orbital elements
Apogee altitude
1,484.306 km
Perigee altitude
1,150.995 km
Semi-major axis
7,695.787 km
Eccentricity
0.02166
Inclination
102.1668°
RAAN
211.0305°
Arg. of periapsis
224.6469°
True anomaly
Unknown
Mean anomaly
313.3222°
Eccentric anomaly
Unknown
Mean motion
3.21487 °/min
Orbital period
111.98 mins
BSTAR
0.00048826
Loading maneuver chart data...
Loading SW <> Apogee altitude chart data...
Loading historical data...
Loading historical data...
Loading historical data...
Loading historical data...
Loading historical data...
Loading historical data...
Loading historical data...

DELTA 1 DEB Visibility forecast

Observer location: undefined°, undefined°

Span
Click to sort rows by Start time (UTC) header in descending order
Start Az.
Max El. time (UTC)
Max El. Az.
Max El.
End time (UTC)
End Az.
10 mins2025-07-01 13:38:21.824Z46.836° ENE2025-07-01 13:43:21.824Z91.4° ESE22.597°2025-07-01 13:48:21.824Z140.568° SSE
13 mins2025-07-01 15:28:21.824Z9.277° NNE2025-07-01 15:34:21.824Z285.717° WNW42.11°2025-07-01 15:41:21.824Z214.091° SW
5 mins2025-07-01 17:20:21.824Z332.024° NNW2025-07-01 17:22:21.824Z315.773° NNW13.837°2025-07-01 17:25:21.824Z291.184° WNW
12 mins2025-07-02 00:20:21.824Z109.125° ESE2025-07-02 00:26:21.824Z53.201° ENE28.291°2025-07-02 00:32:21.824Z2.41° NNE
15 mins2025-07-02 02:08:21.824Z177.107° S2025-07-02 02:15:21.824Z253.812° W41.784°2025-07-02 02:23:21.824Z335.232° NNW
|